GFSMW_700_temp_111.txt.gz
Temp
5 5 5 4 4 4 4 3 4 4 4 5 5 5 5 5 5 6 6 6 7 6 6 7 6 5 6 6 6 6 6 6 6 5 6 6 6 6 6 6 6 6 5
5 4 4 3 2 3 3 3 3 3 3 4 5 6 6 6 6 6 6 6 6 5 6 7 7 6 6 5 5 5 5 5 5 5 5 5 6 6 6 5 5 5 5
4 4 3 2 1 3 3 3 3 3 3 4 4 5 5 6 7 7 7 7 6 6 6 5 5 5 6 5 5 5 4 3 2 3 4 4 5 5 5 5 5 5 5
2 4 3 0 2 3 2 2 2 3 3 3 4 4 5 5 6 6 7 7 7 7 6 5 4 4 5 4 4 4 4 3 3 2 2 4 4 5 5 5 5 5 5
2 2 0 1 2 2 2 2 2 3 3 4 4 4 5 5 6 6 6 6 6 6 5 5 4 4 4 3 3 3 3 3 4 3 2 3 4 4 5 5 5 4 4
0 0 1 1 2 2 1 1 2 2 3 3 3 4 5 5 6 6 6 6 6 6 5 4 3 3 3 3 3 3 3 3 3 3 4 4 4 4 5 5 5 4 4
-1 -0 1 1 2 1 1 1 1 1 2 2 3 3 4 4 5 5 5 5 5 4 5 4 3 3 3 3 1 2 2 3 2 3 3 3 4 4 3 4 4 4 4
-1 -1 0 1 1 0 1 1 1 1 1 2 2 2 3 3 4 5 4 4 4 5 4 4 3 3 2 2 1 2 2 3 3 3 2 3 3 3 3 4 3 4 4
-2 -0 1 1 0 -0 0 1 1 1 1 2 2 2 2 2 3 3 3 4 4 4 4 4 3 3 2 2 1 1 2 3 3 2 2 2 3 2 3 3 3 3 4
-3 -2 -1 -1 -1 -0 0 -0 0 1 1 1 1 1 2 2 3 3 3 3 3 3 3 3 3 3 1 1 1 2 2 3 3 2 2 1 1 1 3 1 2 3 3
-4 -3 -2 -1 -1 -1 -0 -0 -0 -0 -0 0 0 1 1 2 2 2 2 2 2 2 2 3 3 2 1 -0 1 2 3 4 3 2 2 3 1 1 2 2 1 2 2
-4 -3 -2 -2 -2 -1 -1 -1 -1 -2 -2 -1 -0 1 1 1 2 2 2 2 1 2 2 2 1 1 1 0 1 2 3 3 2 3 2 1 1 2 1 2 1 1 1
-3 -3 -3 -2 -2 -2 -2 -3 -3 -3 -3 -2 -1 -0 0 1 1 1 1 1 1 1 1 1 1 1 0 0 1 2 3 3 3 2 2 2 0 1 1 1 1 1 1
-3 -3 -3 -3 -3 -3 -4 -4 -4 -3 -3 -2 -2 -1 -1 -0 -0 0 -0 1 1 2 1 1 1 1 -0 0 1 1 2 2 2 2 0 1 1 0 2 2 1 1 1
-4 -4 -4 -4 -4 -4 -5 -4 -4 -4 -4 -3 -3 -3 -3 -2 -1 -1 -0 -0 -0 -0 -1 -0 0 1 0 0 0 0 1 2 2 1 0 1 -0 -0 0 1 1 1 2
-5 -6 -6 -5 -5 -5 -5 -5 -5 -5 -5 -4 -5 -4 -4 -3 -4 -4 -2 -1 -1 -2 -1 -1 -0 0 -0 -0 0 1 2 1 2 1 1 1 1 1 0 1 1 0 1
-6 -6 -6 -6 -6 -6 -7 -7 -6 -6 -7 -7 -6 -5 -5 -5 -4 -3 -3 -3 -2 -2 -2 -1 -1 0 -0 1 1 0 1 1 1 1 1 1 0 0 1 1 1 0 0
-6 -6 -7 -7 -8 -8 -8 -7 -7 -7 -7 -6 -6 -6 -6 -5 -5 -5 -4 -4 -3 -3 -2 -2 -2 -1 -1 -1 -1 -0 1 1 1 1 1 0 0 0 1 1 1 0 0
-7 -7 -8 -8 -9 -8 -8 -8 -8 -8 -7 -7 -7 -6 -6 -6 -6 -5 -5 -5 -5 -4 -3 -3 -2 -2 -1 -1 -1 -1 -0 1 0 1 0 0 0 0 0 0 -0 -1 -0
-8 -9 -9 -9 -9 -9 -9 -8 -8 -8 -8 -7 -7 -7 -7 -7 -6 -6 -6 -6 -5 -5 -4 -4 -4 -3 -3 -2 -2 -1 -1 0 0 -0 0 1 0 -0 -1 -1 -0 -0 -0
-9 -9 -9 -9 -9 -9 -9 -9 -8 -8 -8 -8 -8 -7 -7 -6 -6 -7 -7 -7 -6 -6 -5 -5 -4 -4 -4 -4 -4 -3 -2 -1 -1 -0 0 -0 0 -0 -1 -0 -0 -0 -1
-10 -10 -10 -9 -9 -9 -9 -9 -8 -8 -8 -8 -8 -7 -7 -7 -7 -7 -7 -7 -7 -6 -6 -5 -5 -5 -5 -4 -4 -4 -4 -4 -3 -3 -3 -1 -0 0 0 -0 -0 -1 -2
-10 -10 -9 -9 -9 -9 -9 -9 -8 -8 -8 -8 -8 -7 -7 -7 -7 -7 -7 -7 -7 -6 -6 -6 -6 -6 -5 -6 -6 -5 -4 -4 -4 -4 -4 -4 -4 -2 -1 -1 -1 -2 -2
-9 -9 -9 -10 -9 -9 -9 -9 -8 -8 -8 -8 -8 -7 -7 -7 -7 -7 -7 -7 -7 -6 -6 -6 -6 -6 -6 -7 -6 -6 -6 -6 -6 -5 -5 -5 -4 -4 -4 -3 -2 -2 -2
-9 -10 -9 -9 -9 -9 -9 -9 -9 -8 -8 -8 -8 -8 -7 -7 -7 -7 -7 -7 -7 -7 -7 -6 -6 -6 -6 -6 -6 -7 -7 -7 -7 -6 -6 -6 -6 -5 -5 -5 -5 -5 -5
-10 -9 -9 -9 -9 -9 -9 -8 -9 -8 -8 -8 -8 -8 -9 -9 -9 -8 -9 -9 -9 -8 -8 -8 -8 -8 -7 -7 -7 -7 -7 -7 -7 -8 -7 -7 -7 -7 -7 -6 -6 -6 -6

GFSMW_700_temp_114.txt.gz
Temp
4 5 5 5 5 5 5 5 4 4 4 5 4 4 4 4 4 4 5 5 6 6 6 6 6 7 6 6 6 5 6 6 6 6 5 6 6 6 6 6 6 6 6
3 4 5 5 5 5 4 4 4 4 4 4 4 5 4 4 4 4 4 5 5 6 6 6 6 6 6 6 6 5 5 5 5 3 3 4 5 6 6 6 6 6 6
0 3 4 5 4 4 3 3 4 4 4 4 4 4 4 5 5 5 5 5 5 6 6 6 6 7 6 7 6 5 5 5 4 4 3 2 2 4 5 5 5 5 5
-1 0 2 4 3 1 2 2 3 3 3 3 3 3 3 4 4 5 5 6 6 6 6 6 6 7 7 7 6 5 5 4 4 4 3 2 1 2 3 4 5 5 5
-1 -0 2 3 1 1 2 2 3 3 3 3 3 3 3 4 4 5 5 6 6 6 6 6 6 6 6 6 6 6 5 4 4 4 2 2 1 3 2 3 4 4 5
-1 -0 1 0 1 2 2 2 2 3 2 2 2 3 3 3 4 4 5 6 6 6 6 6 6 6 5 5 5 5 4 4 3 3 3 2 3 4 4 3 4 4 4
-2 -1 -1 -0 0 1 1 1 0 1 2 2 2 2 2 3 4 4 5 5 5 5 5 5 6 5 5 4 4 4 4 3 3 2 2 2 2 4 3 2 3 3 4
-2 -2 -2 -1 -1 -1 -0 0 1 1 2 2 2 2 3 3 3 4 4 5 5 5 5 5 5 5 5 5 4 3 2 2 2 2 1 1 2 2 2 2 2 3 3
-5 -4 -4 -4 -3 -1 -0 -0 0 1 1 2 2 2 3 3 3 3 3 4 4 5 4 4 4 4 5 4 4 3 2 2 2 1 1 2 2 2 1 2 2 2 3
-4 -4 -4 -4 -2 -1 -1 0 1 1 1 2 2 2 2 2 2 2 3 3 3 4 4 3 4 4 4 4 3 2 1 1 1 0 -0 3 2 2 2 2 1 2 2
-6 -4 -3 -3 -2 -1 -0 -0 -0 -0 1 1 1 1 1 1 1 1 2 2 3 3 3 3 3 3 3 3 2 2 1 1 1 1 1 2 2 2 2 2 1 2 2
-4 -3 -3 -2 -2 -1 -1 -1 -1 -1 -0 -0 -1 -1 -1 -0 1 1 1 2 2 3 3 2 2 2 2 2 2 1 1 1 1 2 2 2 2 2 1 1 1 2 2
-3 -3 -3 -3 -3 -3 -3 -2 -3 -2 -2 -3 -3 -2 -2 -1 -0 1 1 1 1 2 2 1 1 1 1 1 1 1 0 0 1 2 3 2 2 2 2 1 1 1 1
-4 -4 -4 -4 -4 -4 -4 -4 -4 -3 -4 -3 -3 -3 -2 -2 -1 -0 1 1 1 1 1 1 -0 1 0 0 1 1 -0 0 1 2 2 2 2 1 1 0 -0 0 0
-5 -5 -5 -5 -5 -5 -5 -5 -4 -5 -5 -4 -4 -4 -3 -3 -3 -2 -1 -1 -1 -0 0 -1 -2 -1 -1 0 -0 -0 -1 0 1 1 1 1 0 0 -0 0 1 1 1
-5 -5 -5 -6 -6 -6 -6 -6 -7 -6 -6 -5 -5 -5 -5 -5 -4 -4 -5 -4 -4 -2 -2 -3 -2 -2 -1 -1 -0 -0 -1 -0 0 0 1 2 1 1 1 -0 0 1 1
-6 -6 -6 -7 -7 -7 -7 -8 -7 -7 -7 -6 -6 -6 -6 -6 -5 -5 -5 -4 -4 -4 -4 -3 -2 -2 -2 -1 -0 -0 -1 -0 -0 0 0 1 0 0 0 0 0 1 -0
-7 -7 -7 -7 -8 -8 -8 -8 -8 -8 -7 -7 -7 -7 -6 -6 -6 -6 -6 -5 -5 -5 -4 -4 -4 -2 -2 -2 -1 -1 -1 -1 -0 0 1 1 0 0 0 1 0 0 0
-8 -8 -9 -9 -9 -9 -9 -9 -8 -8 -8 -7 -7 -7 -7 -7 -7 -6 -6 -6 -6 -6 -5 -5 -4 -4 -4 -3 -2 -2 -1 -1 -1 -1 0 0 0 -0 -0 -0 0 -0 0
-8 -9 -9 -9 -9 -9 -9 -9 -8 -8 -8 -8 -7 -7 -7 -7 -6 -6 -5 -5 -6 -6 -6 -6 -5 -5 -5 -4 -4 -3 -3 -2 -1 -1 -1 -1 -0 -0 0 -1 -0 0 1
-9 -9 -9 -9 -9 -9 -9 -9 -8 -8 -8 -7 -8 -8 -7 -7 -6 -6 -6 -6 -6 -6 -6 -6 -6 -6 -5 -5 -4 -4 -4 -4 -3 -2 -2 -1 -0 -0 -0 0 -0 -0 -1
-9 -9 -9 -9 -9 -9 -9 -9 -9 -8 -8 -8 -8 -7 -7 -7 -7 -7 -7 -7 -6 -6 -6 -6 -6 -5 -5 -5 -5 -5 -5 -4 -4 -4 -3 -3 -3 -1 -1 -1 -0 -1 -0
-9 -9 -9 -9 -9 -8 -8 -9 -8 -8 -8 -8 -8 -8 -7 -8 -8 -8 -7 -7 -7 -6 -6 -6 -6 -6 -6 -6 -5 -5 -6 -6 -5 -5 -4 -4 -4 -4 -3 -3 -2 -2 -1
-10 -9 -9 -9 -9 -9 -9 -9 -8 -8 -8 -8 -8 -8 -8 -8 -8 -8 -7 -7 -7 -7 -6 -6 -6 -6 -6 -6 -6 -6 -6 -6 -5 -6 -5 -5 -5 -4 -4 -4 -4 -4 -3
-9 -9 -9 -9 -9 -9 -9 -9 -9 -9 -9 -9 -8 -8 -8 -7 -7 -7 -7 -7 -7 -7 -7 -7 -7 -7 -7 -6 -6 -6 -6 -6 -6 -6 -5 -6 -6 -6 -6 -5 -4 -5 -5
-9 -9 -10 -9 -9 -9 -9 -9 -9 -9 -8 -8 -8 -8 -8 -8 -9 -8 -8 -8 -8 -8 -8 -8 -8 -8 -8 -8 -8 -8 -8 -7 -7 -7 -7 -7 -7 -6 -7 -7 -7 -6 -6

GFSMW_700_temp_120.txt.gz
Temp
4 4 4 4 4 4 3 3 3 2 3 4 4 5 5 5 4 4 4 4 4 5 5 5 5 5 5 5 5 5 4 4 4 4 3 2 4 3 4 3 2 4 4
3 3 3 2 1 2 2 1 1 2 2 3 3 4 3 4 4 4 4 4 4 4 4 4 5 5 5 5 5 5 5 5 5 4 4 3 4 3 3 3 3 3 1
1 1 0 -1 -1 0 0 -0 0 1 1 2 2 3 3 4 4 4 4 4 3 3 4 4 4 5 5 5 5 5 5 5 5 5 4 4 4 4 4 4 4 3 3
-0 -0 -2 -2 -1 -1 -0 -0 -0 0 -1 1 2 3 3 3 4 4 4 3 3 3 4 4 4 4 5 5 5 5 5 5 5 5 5 4 4 4 4 4 4 3 3
-2 -2 -2 -2 -3 -1 -1 -1 -1 -0 -3 -0 1 2 3 3 3 3 3 3 3 3 3 4 4 4 5 5 5 5 5 6 5 5 5 5 4 4 3 3 3 3 3
-3 -3 -3 -2 -2 -2 -1 -1 -1 -2 -1 -3 -1 1 2 3 3 3 3 3 3 4 4 4 4 4 5 5 5 5 5 5 5 5 5 5 5 5 4 3 3 3 3
-4 -4 -4 -4 -4 -3 -3 -2 -2 -2 -3 -4 -2 0 1 2 2 2 3 4 3 4 4 4 4 4 4 5 5 5 5 5 5 5 5 5 5 4 4 3 3 2 3
-4 -4 -4 -4 -5 -5 -5 -5 -5 -5 -4 -3 -3 -1 1 1 2 2 3 3 4 4 4 4 4 4 4 4 4 5 5 5 5 5 5 5 5 4 3 3 2 2 2
-4 -4 -4 -4 -4 -4 -5 -6 -5 -5 -3 -2 -1 -0 1 1 2 2 3 3 3 3 3 4 4 4 4 4 4 4 4 4 5 4 5 5 4 4 3 2 2 1 1
-3 -4 -4 -4 -4 -4 -4 -3 -4 -4 -3 -2 -1 -1 0 1 2 2 2 2 2 2 2 3 4 4 4 4 4 4 4 4 4 4 4 4 4 4 3 2 2 1 1
-4 -4 -4 -4 -4 -4 -3 -3 -3 -3 -3 -3 -2 -1 -1 -0 0 1 1 1 1 1 1 2 3 3 3 3 4 4 4 4 3 3 3 4 3 3 2 1 1 1 1
-4 -4 -4 -4 -4 -4 -4 -3 -3 -3 -3 -3 -3 -2 -2 -2 -1 -1 -1 -1 -1 0 1 1 2 2 3 3 3 3 3 3 3 2 2 3 2 2 1 1 1 1 1
-4 -5 -5 -5 -5 -4 -5 -5 -4 -4 -4 -5 -4 -4 -4 -3 -3 -3 -3 -2 -1 -1 0 1 1 2 2 2 2 3 3 3 2 2 2 2 2 1 1 1 0 0 0
-5 -5 -5 -5 -5 -5 -5 -5 -6 -6 -6 -6 -5 -5 -5 -5 -4 -4 -4 -4 -3 -3 -2 -1 -0 1 1 1 2 2 2 2 2 1 1 0 1 0 0 0 0 -0 -0
-6 -6 -6 -6 -6 -6 -6 -6 -7 -7 -8 -7 -7 -6 -6 -6 -6 -6 -5 -5 -5 -4 -3 -3 -3 -2 -0 1 1 1 1 -0 -1 -1 -1 -1 -0 -1 -1 -0 -0 -0 0
-6 -6 -6 -6 -7 -7 -7 -7 -8 -8 -8 -8 -8 -7 -7 -6 -6 -7 -5 -5 -4 -4 -4 -4 -4 -4 -3 -3 -2 -2 -3 -2 -2 -2 -1 -2 -1 -1 -1 -1 -0 -1 -0
-6 -7 -7 -7 -7 -7 -7 -8 -8 -8 -8 -8 -8 -8 -7 -7 -7 -7 -6 -6 -5 -4 -4 -4 -4 -4 -3 -4 -5 -5 -5 -4 -4 -3 -2 -2 -1 -1 -1 -1 -0 -0 -0
-7 -7 -7 -7 -8 -8 -8 -9 -9 -9 -9 -9 -8 -8 -9 -8 -7 -7 -6 -5 -5 -6 -5 -4 -5 -5 -5 -5 -4 -4 -5 -5 -5 -3 -2 -2 -1 -1 -1 -1 -1 -0 -0
-7 -8 -8 -8 -9 -9 -9 -9 -9 -9 -9 -9 -9 -9 -7 -7 -7 -7 -6 -6 -6 -6 -5 -5 -5 -5 -5 -5 -6 -6 -5 -4 -5 -5 -5 -4 -3 -2 -2 -2 -1 -1 -1
-8 -8 -9 -9 -10 -10 -10 -10 -10 -10 -9 -9 -8 -8 -8 -7 -7 -7 -6 -6 -5 -5 -5 -6 -6 -6 -6 -5 -5 -5 -5 -5 -4 -5 -6 -5 -5 -5 -3 -2 -2 -1 -1
-8 -9 -9 -10 -10 -10 -10 -10 -10 -10 -9 -8 -8 -8 -8 -8 -7 -7 -7 -7 -7 -7 -7 -6 -6 -6 -6 -5 -5 -5 -5 -5 -5 -5 -5 -5 -6 -6 -5 -5 -3 -2 -1
-9 -10 -10 -10 -10 -10 -10 -9 -9 -9 -8 -8 -8 -8 -8 -8 -8 -7 -7 -7 -7 -7 -6 -6 -6 -6 -6 -6 -5 -5 -5 -6 -6 -5 -5 -5 -6 -6 -6 -6 -6 -5 -4
-10 -10 -10 -10 -10 -10 -9 -9 -9 -9 -8 -9 -9 -8 -8 -8 -8 -8 -7 -7 -7 -6 -6 -6 -6 -6 -6 -6 -6 -6 -6 -6 -6 -6 -6 -7 -7 -6 -6 -6 -6 -6 -6
-10 -10 -10 -10 -10 -9 -9 -9 -9 -9 -9 -9 -9 -8 -8 -8 -7 -7 -7 -6 -6 -6 -6 -6 -6 -6 -6 -6 -6 -6 -6 -7 -7 -7 -7 -7 -7 -7 -7 -7 -7 -7 -6
-10 -10 -10 -10 -10 -10 -9 -9 -9 -9 -9 -9 -9 -9 -8 -8 -7 -7 -7 -7 -7 -7 -6 -7 -7 -7 -7 -7 -7 -8 -8 -8 -8 -8 -9 -9 -9 -9 -9 -8 -8 -7 -7
-10 -10 -10 -10 -10 -9 -9 -9 -9 -9 -9 -9 -9 -9 -9 -9 -9 -8 -8 -8 -8 -8 -8 -8 -9 -9 -10 -10 -10 -10 -10 -10 -10 -10 -10 -9 -9 -9 -9 -9 -9 -9 -8

GFSMW_700_temp_123.txt.gz
Temp
4 4 4 4 4 4 4 4 4 2 2 2 3 3 4 4 4 4 4 4 4 4 4 4 5 4 5 5 4 4 4 4 4 4 3 2 2 2 3 3 2 4 4
3 3 3 3 3 3 3 2 2 1 0 1 2 2 3 3 3 3 3 3 4 4 4 4 4 4 4 4 4 4 4 4 3 4 4 4 3 3 5 6 5 4 3
1 2 1 1 1 0 0 0 -1 -1 -0 1 1 1 1 2 2 2 3 3 4 4 4 4 4 4 4 4 5 4 4 5 4 4 4 4 5 5 5 5 5 4 4
1 0 -1 -2 -2 -2 -3 -3 -2 -2 -1 -0 0 -0 0 1 2 2 3 3 3 3 3 3 3 4 4 4 4 5 5 5 5 4 4 4 4 4 5 6 5 4 5
-1 -2 -3 -3 -3 -3 -3 -2 -2 -1 -1 -1 -1 -1 -1 -1 1 2 2 3 2 3 3 3 3 3 4 4 4 4 5 5 5 5 5 5 5 5 4 4 5 5 5
-3 -4 -4 -4 -3 -3 -3 -3 -2 -2 -2 -1 -1 -1 -1 -2 -1 0 1 1 2 2 3 3 3 3 3 4 4 4 4 5 5 5 5 5 5 5 5 5 4 5 4
-3 -3 -3 -3 -3 -2 -3 -3 -3 -3 -2 -2 -2 -2 -3 -4 -3 -1 -0 1 2 2 3 3 3 3 3 3 3 4 4 4 4 5 5 5 5 5 5 5 5 4 4
-3 -3 -4 -4 -4 -4 -4 -4 -5 -5 -4 -4 -4 -4 -4 -4 -2 -1 0 1 2 2 2 3 3 2 3 3 3 4 4 4 4 4 4 4 4 5 5 5 4 3 3
-4 -4 -4 -4 -4 -4 -4 -4 -4 -4 -4 -5 -5 -4 -3 -2 -2 -2 0 0 2 2 2 2 2 3 3 3 3 3 3 3 3 4 4 4 4 4 4 4 3 3 2
-4 -3 -3 -4 -4 -4 -4 -4 -4 -4 -4 -4 -4 -3 -3 -2 -1 -1 0 1 0 1 1 2 2 1 2 2 2 2 3 3 3 3 3 3 4 4 4 4 3 3 3
-3 -4 -4 -4 -4 -4 -4 -4 -4 -4 -4 -4 -3 -3 -3 -2 -2 -1 -1 -1 -1 -1 -0 0 0 0 1 1 2 2 2 2 3 3 3 3 3 3 3 3 3 3 3
-3 -4 -4 -4 -4 -4 -4 -5 -5 -5 -4 -5 -5 -4 -4 -3 -3 -3 -3 -2 -2 -2 -2 -1 -1 -0 0 1 1 1 2 2 2 2 2 2 2 3 2 3 3 2 2
-4 -4 -4 -4 -5 -5 -5 -5 -6 -6 -6 -6 -6 -6 -6 -5 -5 -4 -4 -4 -4 -4 -3 -2 -2 -1 -1 -1 -0 0 0 1 1 1 1 1 1 1 2 2 2 1 1
-4 -5 -5 -5 -5 -5 -6 -6 -6 -7 -7 -7 -7 -7 -7 -6 -6 -6 -5 -5 -5 -4 -4 -4 -3 -3 -2 -3 -2 -1 -1 -1 -1 -0 0 0 1 1 1 1 1 1 0
-5 -5 -5 -5 -6 -6 -6 -6 -7 -7 -8 -8 -8 -8 -7 -7 -6 -6 -6 -5 -5 -4 -4 -4 -4 -5 -4 -4 -4 -4 -3 -2 -2 -2 -3 -2 -1 -2 -1 0 -1 -0 0
-5 -6 -6 -6 -6 -6 -7 -7 -8 -8 -8 -8 -8 -8 -8 -8 -7 -7 -6 -6 -6 -5 -5 -5 -5 -5 -5 -5 -5 -5 -5 -4 -4 -4 -4 -3 -3 -3 -1 -1 -0 -1 0
-6 -6 -7 -7 -7 -7 -8 -8 -8 -9 -9 -9 -9 -9 -8 -8 -9 -7 -7 -7 -6 -6 -5 -6 -5 -5 -5 -5 -5 -5 -5 -5 -4 -4 -4 -3 -3 -2 -2 -2 -1 -1 -1
-6 -7 -7 -7 -7 -8 -9 -9 -9 -9 -9 -9 -9 -9 -10 -9 -8 -7 -7 -7 -6 -6 -6 -6 -6 -6 -6 -5 -5 -5 -5 -5 -4 -4 -4 -4 -4 -3 -2 -1 -1 -1 -2
-7 -8 -7 -8 -8 -9 -9 -9 -9 -9 -9 -10 -10 -9 -8 -8 -8 -7 -7 -6 -6 -6 -6 -6 -6 -6 -6 -6 -5 -5 -5 -5 -5 -5 -5 -4 -4 -4 -5 -5 -3 -2 -2
-8 -8 -8 -8 -9 -9 -9 -9 -9 -9 -9 -9 -9 -8 -8 -8 -8 -8 -7 -7 -6 -6 -6 -6 -6 -6 -6 -6 -6 -6 -5 -6 -5 -5 -5 -5 -5 -5 -4 -5 -5 -5 -4
-8 -8 -8 -9 -9 -9 -10 -9 -9 -9 -9 -9 -8 -9 -9 -8 -8 -8 -8 -8 -7 -7 -7 -7 -7 -6 -6 -5 -5 -5 -6 -5 -5 -5 -5 -5 -5 -5 -6 -5 -6 -6 -5
-9 -9 -9 -9 -9 -10 -9 -9 -9 -9 -9 -9 -9 -9 -9 -8 -8 -8 -8 -8 -8 -8 -8 -7 -7 -7 -6 -6 -6 -6 -5 -5 -6 -6 -6 -6 -5 -6 -6 -6 -6 -6 -6
-9 -9 -9 -10 -9 -9 -9 -9 -9 -9 -9 -9 -9 -9 -9 -9 -9 -8 -8 -8 -8 -7 -7 -7 -7 -7 -7 -7 -7 -7 -6 -6 -7 -6 -6 -7 -7 -7 -7 -7 -6 -6 -6
-10 -10 -10 -10 -9 -9 -9 -9 -9 -9 -9 -9 -9 -9 -9 -9 -9 -8 -8 -8 -7 -7 -7 -7 -6 -7 -7 -7 -7 -6 -7 -7 -7 -7 -7 -7 -7 -8 -8 -8 -8 -7 -6
-10 -10 -10 -10 -10 -10 -10 -10 -10 -9 -9 -9 -9 -9 -9 -9 -9 -8 -8 -8 -8 -8 -7 -7 -7 -8 -8 -7 -7 -8 -8 -9 -9 -9 -9 -9 -9 -9 -9 -9 -9 -8 -9
-10 -10 -10 -10 -10 -10 -10 -10 -10 -10 -10 -10 -10 -10 -10 -9 -9 -9 -9 -9 -9 -8 -8 -9 -9 -9 -9 -10 -9 -9 -9 -9 -9 -9 -9 -9 -9 -10 -10 -9 -9 -9 -9

GFSMW_700_temp_126.txt.gz
Temp
4 4 4 4 4 4 4 4 4 3 3 3 3 3 3 3 3 3 4 3 3 3 4 4 4 4 4 4 4 5 5 5 5 4 4 4 3 3 4 3 2 3 4
3 3 3 3 3 3 3 3 3 3 2 -0 0 1 1 2 2 2 3 3 3 3 3 4 4 4 4 4 4 4 4 4 4 4 4 4 5 5 4 5 4 5 4
2 2 3 3 3 2 2 2 2 1 -1 -2 -1 0 0 0 1 1 1 2 2 3 3 4 4 3 3 3 3 3 4 4 4 4 3 4 4 5 5 5 4 5 5
2 2 2 2 2 0 0 -1 -1 -2 -2 -2 -2 -1 -1 -1 0 0 0 1 2 2 3 3 3 3 3 3 3 3 3 3 4 4 3 3 3 4 4 5 5 5 5
1 1 1 -0 -1 -1 -2 -2 -3 -3 -2 -2 -2 -1 -2 -1 -1 -0 0 1 1 1 2 2 2 2 2 3 3 3 3 3 3 3 4 3 3 4 3 4 4 5 5
0 0 -0 -1 -2 -2 -2 -3 -3 -3 -3 -2 -2 -2 -2 -2 -2 -2 -1 -1 -0 1 1 1 2 2 2 2 3 3 3 2 3 3 3 3 3 3 3 3 3 4 5
-0 -1 -1 -2 -2 -2 -2 -3 -3 -3 -3 -3 -3 -3 -3 -2 -2 -2 -2 -2 -2 -1 0 1 1 2 2 2 3 3 3 2 3 3 3 3 3 3 3 3 2 1 2
-1 -1 -2 -3 -3 -3 -3 -4 -3 -4 -4 -4 -4 -5 -5 -4 -3 -3 -3 -3 -3 -3 -2 -0 1 2 2 2 2 2 3 2 2 3 3 3 3 3 3 3 2 2 2
-2 -2 -3 -3 -3 -4 -4 -4 -4 -4 -4 -4 -5 -5 -5 -4 -4 -3 -3 -2 -4 -3 -1 0 1 1 1 1 1 1 2 2 2 2 2 3 3 3 3 3 3 1 2
-2 -3 -3 -3 -3 -3 -4 -4 -4 -4 -4 -4 -4 -4 -4 -4 -4 -3 -3 -3 -2 -2 -2 -1 0 -0 0 0 0 0 1 1 2 2 2 2 2 3 3 3 2 3 2
-2 -3 -3 -4 -4 -4 -4 -4 -4 -4 -4 -4 -4 -4 -4 -4 -4 -4 -3 -3 -3 -2 -2 -1 -1 -1 -1 -1 -1 -0 0 0 1 1 2 2 2 2 2 2 2 3 2
-3 -3 -4 -4 -4 -4 -4 -5 -4 -5 -5 -5 -5 -5 -5 -5 -6 -5 -5 -5 -4 -3 -3 -2 -2 -2 -1 -1 -1 -1 -0 0 0 1 1 1 2 1 2 2 2 2 2
-3 -4 -4 -4 -5 -5 -5 -5 -5 -5 -5 -6 -6 -7 -7 -7 -7 -6 -6 -6 -5 -5 -4 -4 -3 -4 -3 -3 -2 -2 -2 -1 -1 -1 -0 -0 0 0 1 1 1 1 1
-3 -4 -4 -4 -5 -5 -5 -5 -6 -6 -6 -7 -7 -7 -8 -7 -7 -6 -6 -6 -6 -5 -5 -5 -5 -5 -5 -5 -4 -4 -4 -3 -3 -3 -3 -2 -1 -1 -1 -0 -0 -0 1
-4 -4 -5 -5 -5 -6 -5 -6 -6 -7 -7 -8 -8 -8 -8 -8 -7 -7 -8 -7 -6 -6 -5 -5 -5 -5 -5 -5 -5 -5 -6 -5 -4 -4 -4 -4 -3 -3 -2 -2 -1 -0 -0
-5 -5 -5 -5 -6 -6 -6 -7 -7 -8 -8 -8 -8 -8 -8 -8 -8 -9 -8 -7 -6 -6 -6 -5 -5 -5 -4 -5 -5 -5 -5 -6 -6 -6 -6 -5 -4 -4 -4 -3 -1 -1 -1
-5 -5 -6 -6 -6 -6 -7 -7 -8 -8 -8 -9 -9 -9 -9 -9 -10 -8 -7 -7 -7 -6 -6 -6 -5 -5 -4 -4 -5 -5 -5 -5 -5 -5 -6 -6 -5 -4 -4 -3 -3 -2 -2
-5 -6 -6 -7 -7 -7 -7 -8 -9 -9 -9 -9 -9 -10 -10 -9 -8 -8 -7 -7 -7 -6 -6 -6 -5 -5 -5 -5 -5 -5 -5 -5 -5 -5 -4 -4 -5 -5 -5 -4 -4 -3 -2
-6 -6 -7 -7 -7 -8 -8 -9 -9 -9 -9 -9 -9 -9 -9 -9 -8 -8 -8 -7 -6 -6 -6 -6 -6 -5 -5 -6 -6 -6 -5 -5 -5 -5 -5 -4 -4 -4 -4 -6 -5 -4 -5
-7 -7 -7 -7 -8 -8 -9 -9 -9 -9 -9 -9 -9 -9 -9 -8 -8 -8 -7 -7 -7 -6 -6 -6 -6 -6 -6 -6 -6 -6 -6 -6 -6 -5 -5 -5 -5 -4 -4 -4 -4 -5 -5
-8 -7 -8 -8 -8 -9 -9 -9 -9 -9 -9 -9 -9 -9 -9 -8 -8 -8 -7 -7 -7 -7 -7 -7 -7 -7 -7 -6 -6 -6 -6 -6 -5 -6 -6 -5 -5 -5 -5 -5 -4 -4 -4
-8 -8 -8 -8 -9 -9 -9 -9 -9 -9 -9 -9 -9 -9 -8 -8 -8 -8 -8 -8 -8 -8 -8 -8 -7 -7 -7 -6 -6 -6 -6 -6 -6 -6 -6 -5 -5 -5 -5 -5 -6 -6 -5
-8 -8 -9 -9 -9 -9 -9 -10 -9 -9 -9 -9 -9 -9 -9 -9 -8 -8 -8 -8 -8 -8 -8 -8 -7 -7 -7 -7 -7 -7 -7 -7 -7 -7 -7 -7 -7 -6 -7 -7 -6 -6 -7
-9 -9 -9 -9 -10 -10 -10 -9 -9 -9 -9 -9 -9 -9 -9 -9 -9 -9 -9 -9 -9 -8 -8 -7 -7 -7 -7 -7 -7 -7 -7 -7 -8 -8 -8 -7 -7 -7 -8 -8 -8 -8 -7
-10 -10 -10 -10 -10 -10 -10 -10 -10 -10 -10 -9 -9 -9 -9 -9 -9 -9 -9 -9 -8 -8 -8 -8 -8 -8 -8 -8 -8 -9 -9 -8 -8 -8 -8 -9 -9 -9 -8 -8 -8 -8 -9
-10 -10 -10 -10 -10 -10 -10 -10 -10 -10 -10 -10 -9 -9 -10 -10 -10 -9 -9 -9 -9 -9 -9 -9 -9 -9 -10 -10 -10 -10 -10 -10 -10 -9 -10 -10 -9 -9 -9 -9 -9 -9 -9

GFSMW_700_temp_132.txt.gz
Temp
4 5 5 5 5 5 5 5 5 5 5 5 5 5 5 5 4 4 4 2 2 3 2 3 3 3 3 3 3 4 4 4 4 4 5 5 5 5 5 4 4 4 3
3 4 4 4 4 4 4 4 4 4 4 4 4 4 3 4 3 3 3 2 1 1 1 1 2 2 2 2 3 3 3 3 4 4 4 4 5 4 5 4 4 5 5
2 3 4 3 4 4 4 4 4 4 3 3 2 2 2 2 2 2 2 1 1 1 1 1 1 1 2 2 2 3 3 3 3 3 3 3 3 4 4 4 3 4 4
3 3 3 3 3 3 3 3 3 3 3 2 1 1 2 1 1 1 -0 -0 -0 -0 -0 0 0 0 1 1 2 2 3 3 3 3 3 3 3 3 4 4 3 3 3
3 3 2 2 2 2 2 2 2 2 2 1 1 1 0 -0 -0 -1 -1 -1 -1 -1 -1 -2 -1 -0 -0 0 1 2 2 2 2 2 3 3 3 2 2 3 4 3 4
2 2 2 2 2 1 1 1 1 1 1 1 1 0 -0 -1 -1 -1 -1 -1 -1 -1 -1 -2 -2 -1 -1 -1 -0 1 1 1 2 2 3 3 3 3 2 2 3 4 4
2 1 1 1 1 1 1 1 0 0 0 0 -0 -0 -1 -1 -1 -2 -2 -2 -2 -2 -2 -2 -2 -2 -2 -1 -1 -0 0 1 1 2 2 3 2 2 2 2 3 3 4
2 1 0 0 0 0 0 0 -0 -1 -1 -1 -1 -1 -1 -1 -2 -2 -2 -2 -3 -3 -3 -3 -2 -2 -2 -1 -1 -1 -1 -1 -0 1 2 2 2 2 2 1 2 3 3
2 1 0 -0 -0 -0 -1 -1 -1 -2 -2 -2 -2 -2 -2 -2 -3 -3 -3 -3 -3 -3 -3 -3 -3 -3 -3 -4 -3 -2 -1 -1 -1 1 2 2 2 1 1 1 0 1 3
1 1 0 -0 -0 -1 -1 -1 -2 -2 -3 -3 -3 -3 -3 -3 -3 -3 -4 -4 -4 -4 -4 -4 -3 -3 -4 -5 -3 -2 -1 -1 0 1 1 0 0 0 0 0 -0 0 1
1 0 0 -0 -1 -1 -1 -2 -3 -3 -3 -3 -3 -3 -4 -4 -4 -5 -5 -5 -5 -5 -5 -5 -5 -5 -4 -4 -3 -3 -2 -1 -1 -1 -1 -1 -1 -1 -1 -1 -0 -0 0
0 -0 -1 -1 -1 -2 -2 -3 -3 -3 -4 -4 -4 -4 -4 -4 -5 -6 -6 -6 -6 -6 -6 -5 -5 -5 -5 -5 -5 -5 -3 -4 -4 -4 -5 -5 -4 -4 -3 -3 -2 -2 -1
-1 -1 -1 -1 -1 -2 -3 -3 -4 -4 -4 -4 -4 -5 -5 -5 -6 -6 -7 -7 -7 -7 -6 -6 -6 -5 -5 -5 -5 -5 -5 -5 -4 -4 -5 -5 -5 -4 -4 -3 -3 -3 -3
-1 -2 -2 -1 -2 -3 -3 -4 -4 -4 -4 -4 -5 -6 -6 -6 -7 -7 -7 -7 -7 -8 -7 -7 -6 -5 -5 -5 -5 -5 -5 -5 -5 -4 -4 -4 -4 -4 -5 -5 -5 -4 -3
-2 -2 -2 -2 -3 -3 -4 -5 -5 -5 -5 -5 -5 -6 -7 -7 -7 -8 -8 -8 -9 -8 -7 -7 -6 -6 -6 -6 -5 -5 -5 -5 -5 -5 -4 -4 -4 -3 -4 -4 -4 -4 -4
-2 -2 -3 -2 -3 -4 -5 -5 -5 -5 -5 -6 -6 -7 -7 -8 -8 -8 -9 -9 -8 -7 -7 -7 -6 -6 -6 -6 -5 -5 -5 -5 -5 -5 -5 -5 -5 -5 -4 -3 -3 -3 -4
-2 -2 -3 -3 -4 -5 -5 -6 -6 -6 -6 -6 -7 -8 -8 -8 -9 -9 -8 -8 -8 -7 -7 -7 -6 -6 -6 -6 -6 -5 -5 -5 -5 -5 -5 -5 -5 -5 -5 -4 -4 -4 -3
-2 -2 -3 -3 -5 -5 -6 -7 -6 -6 -6 -7 -8 -8 -9 -9 -9 -8 -8 -8 -8 -7 -7 -7 -7 -6 -6 -6 -6 -6 -6 -6 -5 -5 -5 -5 -5 -5 -5 -5 -5 -4 -4
-2 -3 -3 -4 -5 -6 -6 -7 -7 -6 -7 -8 -8 -9 -8 -8 -8 -8 -8 -8 -8 -8 -8 -7 -7 -7 -7 -7 -6 -6 -6 -6 -6 -6 -5 -5 -5 -5 -5 -6 -6 -5 -5
-4 -4 -4 -5 -6 -7 -7 -7 -7 -7 -8 -8 -8 -8 -8 -8 -8 -8 -8 -8 -8 -8 -8 -8 -7 -7 -7 -7 -7 -7 -7 -7 -6 -6 -6 -5 -5 -5 -5 -5 -5 -5 -5
-5 -5 -5 -6 -6 -7 -7 -7 -8 -8 -8 -9 -8 -8 -8 -8 -8 -8 -8 -8 -8 -8 -8 -8 -8 -8 -8 -8 -8 -7 -7 -7 -7 -6 -6 -6 -6 -6 -5 -4 -4 -4 -4
-5 -5 -5 -6 -7 -7 -8 -8 -8 -9 -9 -9 -8 -8 -9 -8 -8 -8 -9 -9 -8 -8 -8 -8 -8 -8 -8 -8 -8 -8 -8 -8 -7 -7 -7 -7 -6 -6 -6 -5 -5 -6 -6
-5 -5 -6 -7 -7 -8 -8 -8 -9 -9 -9 -9 -9 -9 -9 -9 -9 -9 -9 -9 -9 -9 -9 -9 -9 -9 -9 -9 -9 -9 -8 -8 -8 -8 -7 -7 -7 -7 -7 -7 -7 -7 -7
-6 -7 -7 -7 -8 -8 -9 -9 -9 -10 -9 -9 -9 -9 -9 -9 -9 -9 -9 -9 -9 -9 -9 -9 -9 -9 -9 -9 -9 -9 -9 -9 -9 -9 -9 -9 -9 -9 -8 -8 -9 -9 -8
-6 -8 -8 -8 -8 -9 -9 -10 -10 -10 -9 -9 -9 -9 -9 -9 -9 -9 -9 -9 -10 -10 -10 -10 -10 -10 -10 -9 -9 -9 -9 -9 -9 -9 -9 -9 -9 -9 -9 -9 -9 -9 -9
-7 -9 -9 -9 -9 -10 -10 -10 -10 -10 -9 -10 -10 -9 -9 -9 -10 -10 -9 -10 -10 -10 -10 -10 -10 -10 -9 -10 -10 -10 -10 -11 -11 -10 -11 -10 -10 -10 -10 -10 -11 -11 -11

GFSMW_700_temp_138.txt.gz
Temp
6 6 6 5 5 5 5 5 5 5 5 5 5 5 5 5 5 5 5 5 5 5 4 4 4 3 2 2 2 1 2 3 2 2 2 3 3 3 3 3 3 4 4
6 6 5 5 5 5 5 4 5 4 4 4 4 4 4 4 4 4 4 4 4 4 4 4 3 3 2 2 1 0 -1 0 1 1 1 2 2 2 3 3 3 3 4
5 5 5 6 5 5 5 5 4 4 3 3 3 3 3 3 3 3 4 4 3 3 3 3 3 2 2 1 0 -0 -0 -1 -1 -0 1 1 1 2 3 3 3 3 3
6 6 6 5 5 5 4 4 4 3 3 2 2 2 2 2 2 2 3 3 3 3 3 3 2 2 1 1 0 -0 -0 -0 -1 -1 -1 0 0 1 2 2 3 3 3
6 6 5 5 5 5 4 3 3 2 2 1 1 1 1 1 1 1 2 2 2 2 2 2 2 1 1 0 -0 -1 -1 -1 -1 -1 -1 -1 -0 -0 1 2 2 2 3
6 6 4 5 4 4 3 3 2 1 1 1 1 1 1 1 1 0 0 1 1 1 1 1 1 1 0 -0 -0 -1 -1 -2 -2 -2 -1 -1 -1 -1 0 1 1 2 2
6 5 4 4 4 4 3 2 1 1 1 0 0 0 0 -0 -0 -0 -0 0 0 1 0 0 0 -0 -1 -1 -1 -2 -2 -2 -3 -3 -2 -2 -1 -1 -1 0 1 1 2
5 4 4 4 3 3 3 2 1 1 -0 -0 -1 -1 -1 -1 -1 -1 -1 -0 -0 -0 -1 -1 -1 -1 -2 -2 -2 -2 -3 -3 -3 -3 -3 -2 -1 -1 -1 -1 -0 1 1
4 3 4 3 3 3 2 1 0 -0 -1 -1 -1 -1 -2 -2 -2 -1 -1 -1 -2 -2 -2 -2 -2 -2 -3 -3 -3 -3 -3 -4 -5 -5 -4 -4 -4 -3 -2 -1 0 1 1
4 3 3 2 2 2 1 1 -0 -1 -1 -1 -2 -2 -2 -2 -2 -2 -2 -1 -3 -3 -3 -3 -4 -4 -4 -4 -4 -4 -4 -4 -6 -6 -5 -5 -5 -4 -3 -3 -2 -1 -0
3 2 2 2 1 1 1 -0 -1 -1 -2 -2 -2 -3 -3 -3 -3 -2 -2 -2 -4 -4 -5 -5 -6 -6 -6 -5 -5 -5 -6 -6 -6 -6 -6 -6 -6 -5 -5 -5 -4 -3 -2
1 1 1 0 0 0 -0 -1 -1 -2 -2 -2 -3 -3 -3 -3 -3 -3 -3 -3 -5 -5 -6 -6 -6 -7 -7 -6 -6 -6 -5 -6 -6 -7 -7 -6 -6 -6 -5 -5 -5 -5 -6
1 1 0 -0 0 -0 -1 -1 -2 -2 -3 -3 -4 -4 -4 -4 -4 -4 -4 -4 -6 -6 -7 -7 -7 -7 -7 -7 -6 -6 -5 -6 -6 -6 -6 -6 -6 -5 -6 -5 -5 -5 -5
0 -0 -1 -1 -1 -1 -2 -2 -2 -2 -3 -4 -4 -4 -5 -4 -4 -5 -5 -6 -7 -7 -8 -8 -8 -7 -7 -7 -7 -6 -6 -6 -6 -6 -6 -6 -5 -5 -5 -5 -5 -5 -4
-2 -2 -2 -3 -2 -1 -2 -2 -2 -2 -3 -4 -5 -5 -5 -5 -5 -6 -6 -7 -8 -8 -8 -8 -7 -7 -7 -7 -7 -7 -6 -6 -6 -6 -6 -5 -5 -5 -6 -5 -5 -4 -4
-3 -3 -3 -2 -3 -3 -3 -3 -3 -3 -4 -5 -6 -6 -6 -5 -6 -7 -7 -8 -8 -8 -8 -7 -7 -7 -7 -7 -7 -7 -7 -6 -6 -6 -6 -6 -5 -6 -6 -5 -5 -4 -4
-2 -3 -3 -2 -3 -3 -3 -4 -4 -4 -5 -6 -6 -6 -6 -6 -7 -7 -8 -9 -8 -8 -8 -7 -7 -7 -7 -7 -7 -7 -7 -7 -7 -7 -7 -6 -6 -6 -6 -5 -5 -4 -4
-0 -2 -3 -3 -3 -4 -4 -4 -5 -5 -6 -6 -7 -6 -6 -7 -7 -8 -8 -8 -8 -8 -8 -8 -8 -8 -8 -7 -7 -7 -7 -7 -7 -7 -7 -7 -6 -6 -6 -6 -5 -5 -4
-2 -2 -3 -4 -5 -4 -4 -5 -5 -7 -7 -7 -7 -7 -7 -7 -7 -8 -8 -8 -8 -8 -8 -8 -8 -8 -7 -8 -8 -8 -8 -8 -8 -8 -7 -7 -7 -7 -7 -6 -6 -5 -4
-2 -3 -4 -4 -4 -5 -5 -6 -6 -7 -7 -7 -7 -7 -8 -8 -8 -8 -8 -8 -8 -9 -8 -8 -8 -8 -8 -8 -8 -8 -8 -8 -8 -8 -8 -8 -8 -8 -7 -7 -7 -6 -6
-3 -3 -4 -5 -5 -6 -7 -7 -7 -7 -7 -8 -7 -8 -8 -8 -8 -8 -8 -9 -9 -9 -8 -9 -9 -9 -9 -8 -8 -9 -9 -9 -9 -9 -9 -9 -8 -8 -8 -7 -7 -7 -6
-4 -4 -5 -6 -6 -7 -7 -8 -7 -8 -8 -8 -8 -8 -9 -8 -9 -9 -9 -9 -9 -9 -9 -9 -9 -9 -9 -9 -9 -9 -9 -9 -9 -9 -9 -9 -9 -8 -8 -8 -8 -7 -7
-5 -5 -6 -6 -7 -7 -8 -7 -7 -8 -8 -8 -8 -9 -9 -9 -9 -9 -9 -9 -9 -9 -9 -9 -9 -9 -9 -9 -9 -9 -10 -10 -10 -10 -10 -10 -9 -9 -9 -9 -9 -9 -9
-5 -5 -6 -7 -7 -7 -8 -7 -8 -8 -8 -8 -9 -9 -9 -9 -9 -9 -9 -9 -9 -9 -10 -10 -10 -10 -10 -10 -10 -10 -10 -10 -10 -10 -10 -10 -10 -10 -10 -10 -10 -10 -9
-6 -6 -6 -7 -8 -8 -8 -8 -8 -8 -9 -9 -9 -10 -9 -9 -10 -10 -10 -10 -10 -10 -10 -10 -11 -11 -11 -11 -11 -11 -11 -11 -11 -11 -11 -11 -11 -11 -11 -11 -11 -11 -11
-6 -6 -7 -7 -7 -8 -9 -9 -9 -9 -9 -10 -10 -10 -10 -10 -10 -10 -10 -10 -10 -11 -11 -11 -11 -11 -11 -11 -11 -11 -11 -11 -12 -12 -12 -12 -12 -12 -12 -12 -11 -11 -11

GFSMW_700_temp_141.txt.gz
Temp
7 7 7 6 6 5 5 5 5 5 5 5 5 5 5 5 5 5 4 4 4 4 4 4 4 4 4 4 4 4 4 4 4 4 4 3 3 2 2 2 2 3 3
7 7 7 6 5 5 5 5 5 5 5 5 4 4 4 4 4 3 3 3 3 3 4 4 4 4 4 4 4 4 4 4 3 2 2 3 2 1 1 1 2 2 3
7 7 6 6 5 5 5 5 4 4 4 4 4 3 3 3 3 3 3 3 3 3 3 3 3 3 3 3 3 3 3 3 2 1 0 -0 1 0 0 0 1 1 2
6 6 7 6 5 4 4 5 4 4 4 3 3 3 2 2 2 2 2 2 2 2 2 2 2 2 2 2 2 2 2 2 2 0 -0 -1 -1 -0 -1 -0 0 1 1
6 6 6 5 5 4 4 4 4 4 3 2 2 2 2 2 2 2 2 1 1 1 1 1 1 1 1 1 1 1 1 1 1 1 -0 -2 -2 -2 -1 -1 -1 -0 0
6 6 5 4 4 4 4 4 4 3 3 2 2 1 1 1 1 1 1 0 0 0 0 0 1 1 1 1 0 0 -0 -0 -0 -0 -1 -2 -2 -3 -2 -2 -1 -1 -0
6 6 5 4 3 4 4 4 3 3 2 1 1 0 0 0 0 -0 -1 -1 -1 -0 -0 -0 -0 -0 0 0 -0 -1 -2 -2 -1 -2 -3 -3 -3 -3 -3 -2 -2 -1 -1
6 5 4 3 3 3 4 3 3 3 2 1 0 0 -0 -1 -1 -1 -1 -1 -1 -1 -1 -1 -1 -1 -1 -1 -1 -3 -3 -3 -3 -3 -3 -4 -4 -4 -4 -3 -2 -2 -1
5 5 4 2 3 3 3 3 2 2 1 0 -0 -0 -1 -1 -2 -2 -2 -2 -2 -2 -2 -2 -2 -2 -3 -3 -4 -4 -5 -4 -4 -4 -4 -4 -5 -4 -5 -4 -4 -3 -2
5 5 3 2 3 2 2 2 1 1 0 -0 -1 -1 -2 -2 -2 -3 -3 -2 -2 -2 -3 -3 -3 -4 -5 -5 -5 -5 -6 -6 -5 -5 -6 -6 -6 -7 -6 -7 -6 -5 -4
5 4 3 2 2 2 2 1 1 -0 -0 -1 -2 -2 -2 -3 -3 -3 -3 -3 -3 -3 -4 -4 -5 -5 -5 -6 -6 -6 -6 -6 -6 -6 -6 -6 -7 -7 -7 -6 -7 -6 -6
5 4 2 1 1 1 1 0 -0 -1 -1 -1 -2 -2 -3 -3 -4 -3 -3 -3 -4 -4 -5 -5 -6 -6 -6 -6 -7 -7 -6 -6 -6 -6 -6 -6 -7 -8 -8 -7 -6 -6 -6
3 3 1 1 0 0 0 -0 -1 -1 -1 -2 -2 -3 -4 -4 -4 -4 -4 -4 -5 -5 -6 -6 -6 -7 -7 -7 -6 -6 -6 -6 -6 -6 -6 -6 -6 -7 -6 -7 -7 -6 -6
2 1 1 -0 -1 -1 -2 -2 -2 -2 -2 -2 -3 -4 -4 -5 -5 -5 -5 -5 -6 -6 -7 -7 -7 -7 -7 -7 -7 -6 -6 -6 -6 -6 -6 -6 -6 -7 -7 -7 -7 -6 -6
0 -0 -1 -2 -3 -2 -3 -3 -3 -3 -3 -3 -3 -4 -5 -5 -5 -5 -5 -5 -6 -7 -7 -8 -8 -7 -7 -7 -7 -7 -7 -7 -7 -6 -6 -6 -7 -7 -7 -7 -6 -6 -6
-0 -1 -1 -1 -3 -3 -4 -3 -3 -3 -4 -3 -4 -5 -5 -5 -6 -6 -5 -6 -7 -8 -8 -7 -7 -7 -7 -7 -7 -7 -7 -7 -7 -7 -7 -7 -7 -7 -7 -7 -6 -6 -6
-1 -1 -1 -2 -2 -3 -3 -4 -4 -4 -4 -4 -5 -5 -6 -7 -6 -6 -6 -7 -8 -8 -7 -7 -7 -7 -7 -7 -7 -7 -7 -7 -7 -7 -7 -7 -7 -7 -7 -6 -6 -6 -6
-2 -2 -1 -1 -2 -3 -3 -3 -4 -4 -5 -5 -5 -6 -7 -7 -7 -7 -7 -8 -8 -8 -8 -7 -7 -8 -8 -8 -8 -8 -8 -8 -7 -7 -7 -7 -7 -7 -7 -7 -6 -6 -6
-2 -2 -2 -2 -3 -4 -4 -4 -4 -5 -6 -6 -6 -7 -7 -7 -7 -7 -8 -8 -8 -8 -7 -8 -8 -8 -8 -8 -8 -8 -8 -8 -8 -8 -8 -8 -8 -8 -8 -8 -7 -7 -6
-2 -2 -2 -3 -3 -3 -5 -4 -5 -6 -6 -6 -7 -7 -7 -8 -8 -8 -8 -8 -8 -8 -8 -8 -8 -8 -8 -8 -8 -8 -8 -8 -8 -8 -8 -8 -8 -8 -8 -8 -8 -7 -7
-3 -2 -3 -3 -3 -4 -4 -5 -5 -6 -7 -7 -7 -8 -8 -8 -8 -8 -9 -8 -8 -8 -8 -9 -9 -9 -9 -9 -9 -9 -9 -9 -9 -9 -9 -9 -9 -9 -8 -8 -8 -8 -7
-3 -3 -3 -3 -4 -5 -6 -6 -7 -7 -7 -8 -8 -8 -8 -8 -9 -9 -9 -9 -8 -9 -9 -9 -9 -9 -9 -9 -9 -9 -9 -9 -9 -9 -9 -9 -9 -9 -9 -9 -8 -8 -8
-4 -4 -4 -5 -6 -6 -6 -6 -7 -8 -8 -8 -8 -8 -8 -9 -9 -9 -9 -9 -9 -9 -9 -9 -9 -9 -10 -10 -10 -10 -10 -10 -10 -10 -10 -10 -10 -10 -10 -10 -10 -10 -10
-5 -5 -5 -7 -6 -6 -8 -7 -8 -8 -8 -8 -8 -8 -9 -10 -9 -9 -9 -9 -9 -9 -9 -10 -10 -10 -10 -10 -10 -10 -10 -11 -11 -11 -11 -11 -11 -10 -10 -10 -10 -10 -10
-5 -5 -5 -5 -7 -7 -8 -8 -9 -9 -8 -8 -9 -9 -10 -10 -10 -10 -10 -10 -10 -10 -10 -10 -10 -10 -10 -11 -11 -11 -11 -11 -11 -11 -11 -11 -10 -11 -11 -12 -11 -11 -11
-6 -6 -6 -6 -7 -8 -8 -9 -9 -9 -9 -9 -9 -10 -10 -10 -10 -10 -10 -10 -10 -10 -10 -11 -11 -11 -11 -11 -12 -12 -11 -11 -11 -11 -12 -12 -12 -12 -13 -13 -13 -12 -12

GFSMW_700_temp_144.txt.gz
Temp
8 7 7 7 7 6 5 5 5 5 5 5 5 5 5 4 4 4 4 4 4 4 4 4 4 4 4 4 4 4 4 4 4 4 4 3 3 3 3 3 2 1 2
7 7 7 7 6 6 5 5 5 5 5 5 5 4 4 4 4 3 3 3 3 3 3 3 3 4 4 4 4 4 4 4 3 3 3 3 3 2 2 2 2 1 1
8 7 6 6 6 6 5 5 4 4 5 4 4 4 3 3 3 3 3 3 3 3 3 3 3 4 3 3 3 3 3 2 2 2 2 2 2 1 0 1 0 0 0
7 7 7 6 6 6 5 5 4 4 5 4 4 3 3 2 2 2 3 3 3 3 3 3 3 2 2 2 2 2 2 2 2 1 1 1 1 1 1 -1 -1 -1 -0
7 6 6 6 6 5 4 4 4 4 4 4 3 3 3 2 2 2 2 2 2 3 3 2 2 1 1 1 1 1 1 1 1 1 1 -1 -1 -1 -0 -1 -2 -2 -1
7 6 6 6 5 5 4 3 3 4 3 3 3 3 2 2 1 1 1 1 1 1 1 1 1 1 0 1 1 1 0 0 -0 -1 -1 -1 -2 -2 -3 -2 -2 -2 -2
6 6 6 6 6 5 4 3 3 3 3 3 2 2 2 1 1 1 0 0 1 1 0 0 -0 -0 -0 -0 -0 -1 -1 -2 -2 -3 -3 -3 -3 -3 -4 -3 -3 -3 -3
6 6 6 6 5 4 3 3 3 3 2 2 1 1 1 1 0 -0 -0 -0 0 -0 -1 -1 -1 -1 -1 -1 -1 -2 -3 -4 -4 -4 -5 -4 -4 -4 -4 -4 -4 -4 -4
6 6 5 5 5 3 2 2 2 2 1 1 1 0 0 -0 -1 -1 -1 -1 -1 -1 -1 -1 -1 -1 -2 -2 -3 -4 -5 -5 -5 -5 -5 -6 -6 -6 -6 -6 -7 -7 -6
5 5 5 5 4 2 1 2 1 1 0 -0 -0 -0 -0 -1 -1 -1 -2 -2 -2 -2 -2 -2 -2 -3 -3 -4 -4 -5 -6 -6 -6 -5 -5 -5 -5 -6 -7 -7 -7 -7 -7
5 5 4 4 2 1 1 1 1 0 -1 -1 -1 -1 -1 -1 -2 -2 -3 -3 -3 -3 -3 -3 -3 -4 -4 -5 -5 -7 -7 -6 -6 -6 -5 -5 -6 -6 -7 -7 -8 -7 -7
4 4 3 3 2 1 0 1 0 -1 -1 -1 -1 -1 -2 -2 -2 -3 -3 -3 -3 -3 -3 -4 -5 -5 -6 -7 -7 -6 -6 -6 -6 -6 -6 -6 -5 -6 -6 -7 -7 -8 -8
4 4 3 2 0 -0 -0 -0 -1 -1 -2 -2 -2 -2 -2 -3 -3 -3 -3 -4 -4 -4 -4 -5 -6 -7 -7 -7 -6 -6 -6 -6 -6 -6 -6 -6 -6 -6 -6 -6 -6 -7 -7
3 3 3 1 -0 -1 -1 -1 -1 -2 -2 -3 -3 -3 -3 -4 -4 -4 -4 -4 -4 -5 -6 -7 -7 -7 -7 -6 -6 -6 -6 -7 -7 -7 -7 -7 -7 -7 -7 -6 -7 -6 -7
2 2 2 0 -1 -2 -2 -2 -1 -2 -3 -4 -4 -4 -4 -4 -4 -4 -5 -5 -5 -6 -7 -7 -7 -7 -7 -6 -6 -7 -7 -7 -7 -7 -7 -7 -7 -7 -7 -7 -7 -7 -7
2 1 1 -0 -1 -1 -1 -2 -2 -3 -3 -4 -4 -4 -5 -4 -5 -5 -5 -6 -6 -7 -7 -7 -7 -7 -6 -6 -6 -7 -7 -7 -7 -7 -7 -7 -7 -7 -7 -7 -7 -7 -7
-3 -1 -3 -3 -2 -2 -3 -3 -3 -3 -4 -4 -5 -5 -4 -4 -5 -6 -6 -6 -7 -7 -8 -7 -7 -7 -7 -6 -7 -8 -7 -7 -7 -8 -8 -8 -8 -8 -7 -7 -7 -7 -7
-4 -4 -3 -3 -3 -3 -3 -4 -4 -4 -4 -5 -5 -4 -4 -5 -5 -6 -7 -7 -7 -7 -7 -7 -8 -7 -7 -7 -7 -8 -8 -8 -8 -8 -8 -8 -8 -8 -8 -8 -7 -7 -7
-4 -4 -4 -4 -4 -4 -4 -4 -4 -4 -5 -5 -5 -5 -5 -6 -6 -7 -7 -7 -7 -8 -8 -8 -8 -7 -7 -8 -8 -8 -8 -8 -8 -9 -9 -9 -9 -9 -9 -8 -8 -8 -8
-4 -4 -4 -4 -4 -4 -4 -4 -4 -6 -6 -6 -6 -6 -6 -6 -7 -7 -8 -8 -8 -8 -8 -8 -8 -8 -8 -8 -8 -8 -8 -8 -8 -8 -9 -9 -10 -10 -9 -9 -9 -8 -8
-4 -5 -4 -5 -5 -4 -4 -4 -5 -5 -6 -6 -7 -7 -7 -7 -7 -8 -8 -8 -8 -8 -8 -9 -8 -8 -9 -9 -9 -8 -8 -9 -9 -9 -9 -9 -10 -10 -10 -10 -9 -9 -9
-3 -3 -3 -3 -3 -3 -4 -5 -5 -5 -6 -7 -7 -7 -7 -8 -8 -8 -9 -8 -8 -9 -9 -9 -8 -9 -9 -9 -9 -9 -9 -9 -9 -9 -10 -10 -10 -10 -10 -10 -9 -9 -9
-4 -4 -4 -4 -4 -4 -5 -5 -6 -6 -7 -7 -7 -7 -8 -8 -9 -9 -9 -9 -9 -9 -9 -9 -9 -9 -10 -10 -10 -10 -10 -10 -10 -10 -10 -10 -10 -11 -11 -11 -11 -11 -11
-5 -5 -5 -4 -5 -5 -5 -7 -6 -7 -7 -8 -8 -8 -8 -8 -9 -9 -10 -10 -10 -10 -10 -9 -10 -10 -10 -10 -10 -10 -10 -10 -11 -11 -11 -11 -11 -11 -11 -11 -11 -12 -12
-5 -5 -5 -5 -6 -7 -7 -6 -8 -7 -8 -8 -9 -9 -9 -9 -10 -10 -10 -10 -10 -10 -10 -10 -10 -10 -11 -10 -10 -10 -11 -11 -11 -12 -12 -12 -12 -11 -12 -12 -12 -12 -12
-6 -6 -6 -6 -6 -8 -7 -8 -8 -8 -9 -9 -9 -9 -9 -10 -10 -10 -10 -10 -11 -11 -11 -11 -11 -11 -11 -11 -11 -11 -11 -12 -12 -12 -12 -12 -12 -13 -13 -13 -13 -13 -13

GFSMW_700_temp_150.txt.gz
Temp
7 7 7 7 7 7 6 6 6 6 6 5 5 5 5 5 5 5 4 4 4 4 4 4 4 4 4 4 4 4 4 4 4 4 5 5 5 5 5 4 4 4 4
6 7 7 7 7 7 6 6 6 6 6 5 5 5 5 5 5 5 4 4 4 4 4 4 4 4 4 4 4 4 4 4 4 4 4 4 4 5 4 4 3 3 3
8 8 8 8 7 7 6 6 6 6 5 5 5 5 5 5 5 4 4 3 3 3 3 3 3 3 3 3 3 3 4 4 4 3 3 3 3 2 2 2 2 2 2
8 8 8 8 7 7 6 5 5 5 5 5 5 4 4 4 4 4 3 3 3 3 3 3 3 3 3 3 3 3 3 3 3 2 2 2 2 2 2 1 1 1 0
7 7 7 7 7 7 6 5 5 5 5 5 4 4 4 4 4 3 3 2 2 2 2 2 2 3 3 3 3 2 2 2 1 1 1 1 1 1 1 1 0 -1 -1
6 6 7 6 6 6 6 5 5 5 4 4 4 4 4 4 3 3 2 2 2 2 2 2 2 2 2 2 2 1 1 1 1 1 1 0 0 -0 -1 -1 -1 -1 -3
6 6 6 6 6 6 6 5 5 4 4 4 3 3 3 3 3 2 2 2 2 2 2 1 2 2 2 1 1 1 0 0 0 0 -0 -1 -2 -3 -3 -4 -4 -4 -4
6 6 6 6 6 6 6 5 5 4 3 3 2 2 3 2 2 2 2 1 1 1 1 1 1 1 0 0 0 -0 -0 -0 -0 -1 -1 -2 -3 -4 -4 -4 -4 -5 -5
4 4 4 5 5 5 5 5 5 4 2 2 1 2 2 2 1 1 1 1 0 0 0 0 0 -0 0 -0 -0 -1 -1 -1 -1 -2 -2 -3 -4 -5 -5 -5 -5 -5 -6
3 4 4 4 4 5 4 5 4 3 1 1 1 1 1 1 0 0 -0 -0 -1 -1 -1 -0 -0 -1 -1 -1 -1 -1 -1 -2 -2 -3 -4 -4 -4 -5 -5 -5 -5 -6 -7
2 2 3 3 4 4 4 3 3 2 1 1 0 0 0 0 -0 -1 -1 -1 -1 -1 -1 -1 -1 -1 -2 -2 -2 -2 -2 -3 -3 -4 -4 -4 -4 -5 -5 -5 -5 -6 -6
2 2 2 2 2 3 3 3 3 2 0 -1 -1 -0 -1 -1 -1 -1 -1 -2 -1 -2 -2 -2 -2 -2 -3 -3 -3 -3 -3 -4 -4 -4 -4 -4 -5 -5 -6 -6 -6 -6 -6
0 1 2 2 2 2 3 2 2 1 -2 -2 -1 -1 -1 -2 -2 -3 -2 -2 -2 -3 -2 -2 -3 -3 -3 -3 -4 -4 -5 -5 -4 -5 -5 -5 -5 -5 -6 -6 -6 -6 -6
1 1 1 2 2 2 2 2 1 -0 -2 -2 -2 -3 -2 -3 -4 -5 -3 -3 -3 -3 -3 -3 -4 -4 -4 -4 -4 -5 -5 -5 -5 -5 -5 -5 -6 -6 -6 -7 -7 -6 -7
-1 -2 -1 -0 1 1 2 1 0 -1 -2 -3 -5 -5 -5 -5 -5 -5 -4 -4 -4 -4 -4 -4 -5 -5 -5 -5 -6 -6 -5 -5 -5 -5 -5 -6 -6 -7 -6 -7 -7 -7 -8
-4 -3 -2 -1 -1 0 1 0 -0 -1 -3 -3 -4 -5 -5 -5 -5 -5 -5 -4 -5 -5 -4 -5 -5 -5 -5 -6 -6 -6 -6 -5 -6 -6 -6 -6 -7 -7 -7 -8 -8 -8 -8
-4 -4 -3 -3 -2 -1 -1 -1 -1 -2 -3 -4 -5 -5 -5 -5 -5 -5 -5 -6 -6 -5 -5 -6 -5 -6 -6 -7 -6 -6 -6 -6 -6 -6 -7 -7 -8 -8 -8 -8 -8 -8 -8
-5 -5 -4 -4 -4 -3 -2 -2 -3 -3 -4 -5 -5 -5 -4 -5 -5 -6 -6 -6 -6 -6 -6 -6 -6 -7 -7 -7 -7 -6 -6 -7 -7 -7 -7 -8 -8 -8 -8 -9 -9 -8 -9
-5 -5 -5 -5 -4 -4 -4 -4 -5 -5 -5 -5 -5 -5 -6 -6 -6 -6 -6 -6 -7 -7 -6 -7 -7 -7 -7 -7 -7 -7 -7 -8 -8 -8 -8 -8 -8 -8 -9 -9 -9 -9 -9
-5 -5 -5 -5 -5 -4 -4 -4 -5 -5 -5 -5 -6 -6 -6 -6 -6 -6 -6 -7 -7 -7 -7 -7 -7 -8 -8 -8 -8 -8 -8 -8 -9 -8 -9 -9 -9 -9 -9 -9 -9 -9 -9
-4 -5 -5 -5 -6 -5 -5 -5 -5 -5 -5 -6 -6 -6 -6 -6 -6 -6 -7 -7 -8 -7 -7 -7 -8 -8 -8 -8 -8 -8 -9 -9 -9 -9 -9 -9 -9 -9 -9 -9 -9 -9 -9
-4 -4 -4 -4 -4 -4 -5 -5 -5 -5 -5 -6 -6 -6 -6 -7 -7 -7 -7 -8 -8 -8 -8 -8 -8 -8 -8 -9 -9 -9 -9 -9 -9 -9 -10 -9 -9 -9 -9 -9 -9 -9 -9
-5 -4 -5 -4 -4 -4 -4 -5 -5 -5 -5 -7 -7 -7 -7 -7 -7 -8 -8 -8 -8 -8 -8 -8 -9 -9 -9 -9 -10 -10 -10 -10 -10 -10 -10 -10 -10 -10 -10 -10 -10 -10 -10
-5 -5 -5 -5 -5 -5 -4 -5 -5 -5 -5 -7 -8 -8 -8 -8 -8 -8 -8 -9 -9 -8 -9 -9 -9 -9 -10 -10 -10 -10 -10 -10 -10 -10 -11 -11 -11 -10 -10 -10 -11 -11 -11
-5 -5 -5 -5 -5 -5 -5 -5 -5 -5 -7 -8 -8 -8 -8 -9 -9 -9 -9 -9 -9 -9 -9 -9 -9 -10 -11 -11 -11 -11 -11 -11 -11 -11 -11 -11 -11 -11 -11 -11 -12 -12 -12
-5 -5 -6 -6 -6 -6 -6 -6 -6 -6 -7 -8 -8 -8 -9 -9 -9 -9 -9 -9 -10 -10 -10 -10 -10 -11 -11 -11 -11 -11 -11 -11 -11 -12 -12 -12 -12 -12 -12 -12 -12 -13 -13